Wetbulb
53.42 53.58 53.57 53.08 52.55 52.10 52.28 52.61 53.39 54.36 55.15 55.45 55.93 56.37 56.58 56.37 55.86 55.77 55.61 54.01 52.64 50.85
53.50 52.89 52.35 51.87 52.25 52.11 52.43 52.66 52.87 53.81 54.06 55.21 55.47 55.87 55.33 54.80 54.76 54.77 54.76 52.43 51.95 51.62
53.35 53.16 52.22 51.16 50.73 50.91 51.29 51.63 51.94 52.34 53.41 54.70 54.30 55.00 55.03 54.27 54.23 53.57 53.36 52.75 51.16 50.71
53.31 52.41 51.21 50.31 50.23 50.12 50.23 50.36 50.50 51.32 51.83 52.59 53.27 53.54 53.80 54.01 53.31 52.39 51.95 52.13 51.20 49.99
52.62 51.95 50.21 49.70 49.85 50.16 49.53 49.85 49.72 50.44 51.23 52.94 52.64 52.20 51.95 51.75 51.74 51.49 49.99 49.99 50.06 48.26
52.58 51.49 50.22 49.55 49.77 49.53 49.30 49.17 49.08 49.14 48.07 47.70 50.14 51.32 51.14 50.77 50.23 50.21 49.43 48.63 48.06 46.42
52.04 52.05 50.76 49.85 49.54 49.19 49.03 48.63 48.47 48.53 48.09 47.82 47.46 49.00 49.74 49.62 49.43 49.37 49.38 48.50 48.37 47.34
50.41 51.09 50.80 49.79 49.23 48.78 48.42 48.36 48.19 48.02 48.15 48.34 47.93 47.43 47.79 47.88 47.45 46.47 46.06 46.32 46.69 47.20
48.16 49.51 49.63 49.43 48.85 48.33 47.86 47.81 47.73 47.34 47.63 47.55 47.95 47.36 47.37 47.18 46.73 46.39 45.70 44.70 44.69 44.61
46.00 45.78 47.48 48.89 48.42 48.02 47.61 47.50 46.89 46.67 46.92 47.32 47.68 47.79 47.34 46.60 45.85 45.37 45.12 44.87 44.53 44.36
43.94 43.50 44.54 45.22 47.48 47.46 47.43 47.07 46.98 46.55 46.18 46.81 47.23 47.37 47.18 46.80 46.69 46.30 46.11 45.86 45.93 45.25
42.06 42.30 42.50 42.24 42.89 45.82 45.03 43.77 43.62 45.22 46.04 45.91 46.38 46.62 46.98 46.91 46.65 45.93 45.66 46.44 46.85 46.50
41.20 41.81 41.01 41.11 41.24 41.76 41.93 41.20 41.40 41.13 42.64 45.33 45.91 46.49 46.98 46.31 44.90 42.77 42.50 43.63 44.91 45.81
39.97 40.76 40.50 40.32 40.50 40.67 40.26 40.15 39.94 39.73 40.55 41.71 43.54 44.56 45.32 44.59 42.85 41.69 41.02 41.63 42.20 44.08
MSLP
1010.42 1010.45 1010.36 1010.17 1010.07 1009.96 1009.82 1009.91 1010.05 1010.00 1010.16 1010.24 1010.48 1010.65 1010.77 1010.79 1011.49 1011.96 1012.35 1012.79 1013.96 1014.50
1009.63 1009.70 1009.68 1009.55 1009.52 1009.45 1009.33 1009.21 1009.26 1009.26 1009.22 1009.35 1009.68 1009.76 1010.02 1010.32 1010.48 1011.28 1011.74 1012.14 1013.06 1014.05
1008.77 1008.87 1008.94 1008.96 1009.01 1008.88 1008.74 1008.73 1008.58 1008.59 1008.46 1008.55 1008.85 1009.14 1009.35 1009.28 1010.32 1010.50 1011.20 1011.73 1012.38 1013.73
1008.09 1008.25 1008.36 1008.35 1008.50 1008.38 1008.29 1008.43 1008.22 1007.85 1007.70 1007.74 1007.93 1008.34 1008.54 1008.77 1009.39 1010.11 1010.73 1011.18 1011.66 1012.73
1007.54 1007.63 1007.79 1007.76 1007.84 1007.98 1008.07 1008.17 1007.81 1007.19 1006.90 1006.68 1007.05 1007.49 1007.95 1008.21 1008.67 1009.30 1009.98 1010.51 1011.52 1012.42
1007.14 1007.21 1007.21 1007.24 1007.39 1007.50 1007.61 1007.73 1007.80 1007.23 1006.97 1006.76 1006.70 1006.81 1007.28 1008.06 1008.48 1008.78 1009.34 1010.09 1011.14 1012.25
1006.86 1006.78 1006.71 1006.76 1006.91 1007.18 1007.62 1007.55 1007.75 1007.72 1007.37 1007.20 1007.24 1006.69 1006.94 1007.48 1008.12 1008.88 1009.30 1009.99 1011.11 1011.89
1006.85 1006.69 1006.56 1006.60 1006.71 1007.14 1007.54 1007.65 1007.89 1007.95 1007.77 1007.40 1007.39 1007.31 1007.33 1007.63 1008.55 1008.57 1009.80 1010.63 1011.23 1011.92
1007.27 1007.08 1006.74 1006.64 1006.71 1007.13 1007.59 1007.76 1008.09 1008.21 1008.05 1007.79 1008.08 1008.13 1007.70 1008.17 1008.53 1008.82 1009.95 1010.86 1012.03 1012.62
1007.88 1007.53 1007.30 1007.13 1007.03 1007.21 1007.60 1007.81 1008.10 1008.37 1008.44 1008.44 1008.55 1008.61 1008.71 1008.97 1009.49 1010.03 1010.81 1011.60 1012.26 1012.98
1008.37 1008.21 1007.98 1007.75 1007.56 1007.55 1007.85 1007.99 1008.15 1008.52 1008.81 1008.98 1009.17 1009.51 1009.70 1010.04 1010.47 1011.13 1011.79 1011.98 1012.46 1012.89
1009.09 1008.89 1008.55 1008.60 1008.29 1008.13 1008.30 1008.58 1008.76 1008.78 1009.04 1009.36 1009.64 1009.84 1010.16 1010.58 1011.17 1011.94 1012.53 1012.87 1013.48 1013.91
1009.87 1009.66 1009.44 1009.38 1009.33 1009.14 1009.20 1009.42 1009.60 1009.88 1009.93 1009.81 1010.00 1010.29 1010.64 1011.00 1011.63 1012.28 1012.83 1013.47 1013.66 1014.01
1010.64 1010.45 1010.26 1010.14 1010.19 1010.17 1010.15 1010.47 1010.67 1010.77 1010.93 1010.81 1010.84 1011.04 1011.20 1011.54 1012.16 1012.87 1013.47 1013.95 1014.39 1014.61
Wind_Speed
11 8 8 9 7 7 7 8 10 11 12 13 14 14 11 14 13 14 14 18 13 11
8 9 9 8 7 6 8 8 10 12 13 14 13 13 14 10 15 15 15 15 16 12
8 9 8 6 8 8 8 9 9 10 11 13 14 14 15 14 13 16 13 13 17 14
7 8 7 6 7 6 3 4 8 12 13 15 14 13 13 15 17 17 15 15 17 17
6 6 7 8 8 5 4 2 6 5 11 13 13 13 12 13 15 18 17 16 16 15
5 5 8 8 7 7 6 3 6 2 6 6 4 14 13 12 12 15 15 16 15 15
4 5 5 7 8 7 4 5 6 4 4 8 6 4 9 11 11 11 12 13 14 14
5 3 2 5 7 8 5 5 4 5 3 7 7 4 8 11 9 12 10 9 9 12
7 7 4 1 6 8 6 6 5 4 4 6 6 11 15 10 9 11 10 9 7 7
8 8 7 3 5 7 6 5 5 5 3 5 7 12 16 15 8 9 9 9 10 8
8 8 8 7 4 6 4 4 4 6 3 4 5 11 12 12 9 9 8 8 8 9
8 8 9 9 8 6 8 7 7 5 5 5 4 9 11 9 7 7 7 8 7 7
8 8 9 9 9 8 10 10 8 10 9 9 4 10 11 9 6 7 6 6 5 8
7 7 8 10 9 9 11 11 11 13 11 13 10 11 15 14 7 7 7 6 6 5
Wind_Direction
234 240 253 247 238 236 229 228 225 217 222 222 225 228 209 198 189 193 189 175 178 165
231 236 246 237 243 250 252 242 230 222 220 223 223 217 198 205 197 189 184 175 169 174
233 233 236 230 242 241 250 243 240 234 223 223 217 215 200 190 197 184 184 175 170 178
240 230 222 220 228 222 205 245 247 241 236 231 212 200 209 198 188 187 183 179 175 173
238 220 208 213 214 190 195 250 301 241 233 217 190 189 189 185 188 179 182 174 175 165
256 223 221 210 197 190 184 162 31 28 64 46 204 182 177 177 176 173 175 166 164 161
286 267 231 204 188 168 157 124 98 34 56 76 18 138 155 160 168 172 165 160 164 156
351 346 300 194 163 151 157 122 109 76 23 74 38 49 126 131 141 124 123 129 145 164
6 1 15 144 149 141 152 137 116 91 44 56 61 56 81 101 114 109 112 111 101 120
7 14 9 82 117 135 137 144 153 119 66 67 76 60 70 73 83 100 115 127 134 123
20 21 27 30 80 107 111 115 136 168 143 92 81 100 93 88 87 87 93 91 96 114
22 32 33 34 30 71 84 67 57 50 133 104 117 123 106 94 90 98 102 107 115 122
20 33 51 46 44 60 74 70 66 58 48 79 129 139 130 110 96 82 73 60 71 101
25 41 52 64 55 61 76 76 71 69 52 54 59 79 97 106 108 117 96 88 75 81